• In Uzbekistan
  • List of Countries
  • For 7 days
  • Water Temperature
  • Satellite Maps
  • Weather Map
  • Weather Widgets
  • user-avatar
    Login

    Hourly Weather Coleraine

    Today, 11 December, Monday

    Time Temperature Precipitation Wind Pressure Humidity
    00:00 -1°C° 0 mm 3 mps 738 mmHg 84%
    01:00 0°C° 0.2 mm 3 mps 738 mmHg 85%
    02:00 -1°C° 0.2 mm 4 mps 738 mmHg 85%
    03:00 -1°C° 0.2 mm 4 mps 739 mmHg 86%
    04:00 0°C° 0.4 mm 5 mps 739 mmHg 85%
    05:00 +1°C° 0.4 mm 6 mps 739 mmHg 84%
    06:00 +1°C° 0.4 mm 6 mps 740 mmHg 83%
    07:00 +2°C° 0.3 mm 7 mps 740 mmHg 83%
    08:00 +2°C° 0.3 mm 7 mps 741 mmHg 82%
    09:00 +2°C° 0.3 mm 7 mps 742 mmHg 82%
    10:00 +2°C° 0.2 mm 7 mps 742 mmHg 81%
    11:00 +3°C° 0.2 mm 7 mps 743 mmHg 81%
    12:00 +3°C° 0.2 mm 7 mps 743 mmHg 81%
    13:00 +3°C° 0.1 mm 7 mps 744 mmHg 81%
    14:00 +3°C° 0.1 mm 7 mps 745 mmHg 81%
    15:00 +3°C° 0.1 mm 7 mps 745 mmHg 81%
    16:00 +2°C° 0.2 mm 7 mps 746 mmHg 81%
    17:00 +2°C° 0.2 mm 7 mps 746 mmHg 82%
    18:00 +2°C° 0.2 mm 7 mps 747 mmHg 82%
    19:00 +2°C° 0.1 mm 7 mps 747 mmHg 83%
    20:00 +2°C° 0.1 mm 6 mps 748 mmHg 84%
    21:00 +2°C° 0.1 mm 6 mps 749 mmHg 84%
    22:00 +2°C° 0.1 mm 6 mps 749 mmHg 85%
    23:00 +2°C° 0.1 mm 5 mps 749 mmHg 86%

    Tomorrow, 12 December, Tuesday

    Time Temperature Precipitation Wind Pressure Humidity
    00:00 +2°C° 0.1 mm 5 mps 750 mmHg 87%
    01:00 +1°C° 0 mm 4 mps 750 mmHg 87%
    02:00 +1°C° 0 mm 4 mps 750 mmHg 87%
    03:00 +2°C° 0 mm 3 mps 750 mmHg 87%
    04:00 +2°C° 0 mm 3 mps 750 mmHg 88%
    05:00 +2°C° 0 mm 3 mps 750 mmHg 88%
    06:00 +3°C° 0 mm 2 mps 750 mmHg 89%
    07:00 +2°C° 0 mm 3 mps 750 mmHg 90%
    08:00 +2°C° 0 mm 3 mps 750 mmHg 91%
    09:00 +1°C° 0 mm 3 mps 750 mmHg 92%
    10:00 +1°C° 0 mm 4 mps 750 mmHg 91%
    11:00 +1°C° 0 mm 4 mps 750 mmHg 89%
    12:00 +2°C° 0 mm 5 mps 749 mmHg 88%
    13:00 +2°C° 0.5 mm 6 mps 749 mmHg 89%
    14:00 +2°C° 0.5 mm 6 mps 748 mmHg 89%
    15:00 +2°C° 0.5 mm 7 mps 748 mmHg 90%
    16:00 +2°C° 0.3 mm 7 mps 747 mmHg 91%
    17:00 +2°C° 0.3 mm 7 mps 747 mmHg 92%
    18:00 +2°C° 0.3 mm 7 mps 747 mmHg 93%
    19:00 +2°C° 0.1 mm 7 mps 747 mmHg 91%
    20:00 +3°C° 0.1 mm 7 mps 747 mmHg 90%
    21:00 +3°C° 0.1 mm 7 mps 747 mmHg 88%
    22:00 +3°C° 0.1 mm 7 mps 747 mmHg 88%
    23:00 +2°C° 0.1 mm 7 mps 747 mmHg 88%

    Day after tomorrow, 13 December, Wednesday

    Time Temperature Precipitation Wind Pressure Humidity
    00:00 +2°C° 0.1 mm 7 mps 746 mmHg 88%
    01:00 +2°C° 0.3 mm 7 mps 746 mmHg 88%
    02:00 +2°C° 0.3 mm 7 mps 746 mmHg 89%
    03:00 +3°C° 0.3 mm 7 mps 746 mmHg 90%
    04:00 +2°C° 0.1 mm 7 mps 745 mmHg 90%
    05:00 +2°C° 0.1 mm 7 mps 744 mmHg 90%
    06:00 +2°C° 0.1 mm 6 mps 743 mmHg 90%
    07:00 +1°C° 0.8 mm 8 mps 743 mmHg 86%
    08:00 +1°C° 0.8 mm 9 mps 743 mmHg 81%
    09:00 +1°C° 0.8 mm 11 mps 742 mmHg 77%
    10:00 +1°C° 0.4 mm 11 mps 742 mmHg 76%
    11:00 +1°C° 0.4 mm 11 mps 742 mmHg 75%
    12:00 +1°C° 0.4 mm 11 mps 742 mmHg 74%
    13:00 0°C° 0.3 mm 10 mps 742 mmHg 74%
    14:00 0°C° 0.3 mm 10 mps 742 mmHg 73%
    15:00 0°C° 0.3 mm 10 mps 742 mmHg 73%
    16:00 0°C° 0.3 mm 10 mps 742 mmHg 73%
    17:00 -1°C° 0.3 mm 9 mps 742 mmHg 74%
    18:00 -1°C° 0.3 mm 9 mps 742 mmHg 74%
    19:00 -1°C° 0.3 mm 9 mps 742 mmHg 75%
    20:00 -1°C° 0.3 mm 9 mps 742 mmHg 76%
    21:00 -1°C° 0.3 mm 9 mps 742 mmHg 77%
    22:00 -1°C° 0.3 mm 8 mps 741 mmHg 79%
    23:00 -1°C° 0.3 mm 8 mps 741 mmHg 81%

    14 December, Thursday

    Time Temperature Precipitation Wind Pressure Humidity
    00:00 -1°C° 0.3 mm 8 mps 740 mmHg 83%
    01:00 -1°C° 0.3 mm 7 mps 740 mmHg 83%
    02:00 -1°C° 0.3 mm 7 mps 740 mmHg 82%
    03:00 -1°C° 0.3 mm 7 mps 739 mmHg 82%
    04:00 -2°C° 0.2 mm 6 mps 739 mmHg 83%
    05:00 -2°C° 0.2 mm 6 mps 739 mmHg 83%
    06:00 -2°C° 0.2 mm 6 mps 738 mmHg 83%
    07:00 -1°C° 0.1 mm 5 mps 738 mmHg 85%
    08:00 -1°C° 0.1 mm 5 mps 738 mmHg 87%
    09:00 -1°C° 0.1 mm 5 mps 738 mmHg 89%
    10:00 0°C° 0.3 mm 5 mps 738 mmHg 89%
    11:00 0°C° 0.3 mm 5 mps 738 mmHg 89%
    12:00 +1°C° 0.3 mm 5 mps 739 mmHg 89%
    13:00 +1°C° 0.3 mm 6 mps 738 mmHg 87%
    14:00 +2°C° 0.3 mm 6 mps 738 mmHg 86%
    15:00 +2°C° 0.3 mm 6 mps 738 mmHg 84%
    16:00 +1°C° 0.1 mm 5 mps 738 mmHg 86%
    17:00 0°C° 0.1 mm 4 mps 738 mmHg 87%
    18:00 -1°C° 0.1 mm 4 mps 739 mmHg 89%
    19:00 0°C° 0.2 mm 3 mps 740 mmHg 90%
    20:00 0°C° 0.2 mm 3 mps 741 mmHg 91%
    21:00 0°C° 0.2 mm 3 mps 742 mmHg 92%
    22:00 0°C° 0 mm 4 mps 743 mmHg 88%
    23:00 0°C° 0 mm 5 mps 744 mmHg 84%

    15 December, Friday

    Time Temperature Precipitation Wind Pressure Humidity
    00:00 0°C° 0 mm 7 mps 745 mmHg 80%
    01:00 0°C° 0.1 mm 7 mps 746 mmHg 80%
    02:00 +2°C° 0.1 mm 7 mps 747 mmHg 80%
    03:00 +1°C° 0.1 mm 8 mps 747 mmHg 80%
    04:00 +1°C° 0.2 mm 8 mps 748 mmHg 80%
    05:00 +1°C° 0.2 mm 8 mps 749 mmHg 79%
    06:00 +1°C° 0.2 mm 9 mps 750 mmHg 79%
    07:00 +1°C° 0.1 mm 8 mps 751 mmHg 78%
    08:00 +1°C° 0.1 mm 8 mps 752 mmHg 77%
    09:00 +1°C° 0.1 mm 8 mps 753 mmHg 76%
    10:00 +2°C° 0 mm 7 mps 754 mmHg 77%
    11:00 +3°C° 0 mm 7 mps 755 mmHg 77%
    12:00 +3°C° 0 mm 6 mps 756 mmHg 78%
    13:00 +3°C° 0 mm 6 mps 756 mmHg 78%
    14:00 +2°C° 0 mm 6 mps 757 mmHg 79%
    15:00 +2°C° 0 mm 6 mps 757 mmHg 79%
    16:00 +2°C° 0 mm 5 mps 757 mmHg 81%
    17:00 +1°C° 0 mm 5 mps 758 mmHg 82%
    18:00 +1°C° 0 mm 5 mps 758 mmHg 83%
    19:00 0°C° 0 mm 5 mps 758 mmHg 84%
    20:00 0°C° 0 mm 4 mps 758 mmHg 84%
    21:00 0°C° 0 mm 4 mps 759 mmHg 85%
    22:00 0°C° 0.1 mm 4 mps 759 mmHg 86%
    23:00 0°C° 0.1 mm 4 mps 759 mmHg 87%

    16 December, Saturday

    Time Temperature Precipitation Wind Pressure Humidity
    00:00 0°C° 0.1 mm 4 mps 759 mmHg 89%
    01:00 0°C° 0.1 mm 4 mps 758 mmHg 89%
    02:00 0°C° 0.1 mm 4 mps 758 mmHg 90%
    03:00 0°C° 0.1 mm 4 mps 758 mmHg 91%
    04:00 0°C° 0.2 mm 4 mps 758 mmHg 91%
    05:00 0°C° 0.2 mm 4 mps 758 mmHg 92%
    06:00 0°C° 0.2 mm 5 mps 757 mmHg 92%
    07:00 0°C° 0.1 mm 5 mps 757 mmHg 92%
    08:00 +1°C° 0.1 mm 5 mps 757 mmHg 92%
    09:00 +1°C° 0.1 mm 5 mps 757 mmHg 92%
    10:00 +1°C° 0.2 mm 5 mps 756 mmHg 91%
    11:00 +2°C° 0.2 mm 6 mps 756 mmHg 90%
    12:00 +2°C° 0.2 mm 6 mps 755 mmHg 89%
    13:00 +2°C° 0.4 mm 6 mps 754 mmHg 89%
    14:00 +2°C° 0.4 mm 6 mps 753 mmHg 90%
    15:00 +2°C° 0.4 mm 7 mps 752 mmHg 91%
    16:00 +3°C° 1.2 mm 7 mps 751 mmHg 91%
    17:00 +3°C° 1.2 mm 7 mps 750 mmHg 91%
    18:00 +4°C° 1.2 mm 7 mps 749 mmHg 91%
    19:00 +4°C° 0.2 mm 7 mps 749 mmHg 90%
    20:00 +4°C° 0.2 mm 7 mps 749 mmHg 89%
    21:00 +4°C° 0.2 mm 7 mps 749 mmHg 88%
    22:00 +4°C° 0.2 mm 7 mps 749 mmHg 89%
    23:00 +5°C° 0.2 mm 6 mps 749 mmHg 91%
    Show more